Decorah, Iowa, United States (52101)
Lat: 43.30N, Lon: 91.79W
Wx Zone: IAZ010
Local Info
Past Weather Observations for Today

NOTE: This archive is for the closest National Weather Service station to Decorah. Information may differ from the station used for current weather conditions.

Click here for Long-term Archive

Time Weather Temperature Dewpoint Humidity Pressure Winds Precip Visibility
17:15
Clear
73°F / 23°C 59°F / 15°C 61% 29.8 in
(1009 mb)
Variable 6.9 mph
(Variable 11 kph)
- 10SM
16:55
Partly Cloudy
73°F / 23°C 59°F / 15°C 61% 29.8 in
(1009 mb)
Variable 5.8 mph
(Variable 9 kph)
- 10SM
16:35
Clear
75°F / 24°C 59°F / 15°C 57% 29.8 in
(1009 mb)
Variable 6.9 mph
(Variable 11 kph)
- 10SM
16:15
Partly Cloudy
75°F / 24°C 59°F / 15°C 57% 29.8 in
(1009 mb)
NW 8.1 mph
(NW 13 kph)
- 10SM
15:55
Partly Cloudy
75°F / 24°C 61°F / 16°C 61% 29.77 in
(1008 mb)
WNW 8.1 mph
(WNW 13 kph)
- 10SM
15:35
Clear
75°F / 24°C 61°F / 16°C 61% 29.77 in
(1008 mb)
W 8.1 mph
(W 13 kph)
- 10SM
15:15
Clear
75°F / 24°C 59°F / 15°C 57% 29.77 in
(1008 mb)
NW 9.2 mph
(NW 15 kph)
- 10SM
14:55
Partly Cloudy
75°F / 24°C 61°F / 16°C 61% 29.77 in
(1008 mb)
Variable 6.9 mph
(Variable 11 kph)
- 10SM
14:35
Partly Cloudy
73°F / 23°C 64°F / 18°C 74% 29.77 in
(1008 mb)
NW 9.2 mph
(NW 15 kph)
- 10SM
14:15
Partly Cloudy
75°F / 24°C 64°F / 18°C 69% 29.77 in
(1008 mb)
W 11.5 mph
(W 19 kph)
- 10SM
13:55
Clear
73°F / 23°C 66°F / 19°C 78% 29.77 in
(1008 mb)
Variable 5.8 mph
(Variable 9 kph)
- 10SM
13:35
Clear
73°F / 23°C 64°F / 18°C 74% 29.77 in
(1008 mb)
WNW 8.1 mph
(WNW 13 kph)
- 10SM
13:15
Partly Cloudy
73°F / 23°C 64°F / 18°C 74% 29.77 in
(1008 mb)
Variable 5.8 mph
(Variable 9 kph)
- 10SM
12:55
Mostly Cloudy
70°F / 21°C 66°F / 19°C 88% 29.74 in
(1007 mb)
Variable 6.9 mph
(Variable 11 kph)
- 10SM
12:35
Mostly Cloudy
72°F / 22°C 64°F / 18°C 78% 29.74 in
(1007 mb)
Variable 4.6 mph
(Variable 7 kph)
- 10SM
12:15
Mostly Cloudy
Drizzle
72°F / 22°C 64°F / 18°C 78% 29.74 in
(1007 mb)
NW 10.4 mph
(NW 17 kph)
- 8SM
11:55
Partly Cloudy
73°F / 23°C 64°F / 18°C 74% 29.74 in
(1007 mb)
NW 8.1 mph
(NW 13 kph)
- 10SM
11:35
Overcast
72°F / 22°C 66°F / 19°C 83% 29.74 in
(1007 mb)
Variable 6.9 mph
(Variable 11 kph)
- 10SM
11:15
Overcast
72°F / 22°C 66°F / 19°C 83% 29.74 in
(1007 mb)
Variable 4.6 mph
(Variable 7 kph)
- 10SM
10:55
Overcast
72°F / 22°C 66°F / 19°C 83% 29.74 in
(1007 mb)
SSW 8.1 mph
(SSW 13 kph)
- 10SM
10:35
Overcast
70°F / 21°C 66°F / 19°C 88% 29.74 in
(1007 mb)
Variable 6.9 mph
(Variable 11 kph)
- 10SM
10:15
Overcast
70°F / 21°C 66°F / 19°C 88% 29.74 in
(1007 mb)
W 10.4 mph
(W 17 kph)
- 10SM
09:55
Overcast
70°F / 21°C 66°F / 19°C 88% 29.71 in
(1006 mb)
Variable 6.9 mph
(Variable 11 kph)
- 10SM
09:35
Overcast
68°F / 20°C 66°F / 19°C 94% 29.71 in
(1006 mb)
Variable 6.9 mph
(Variable 11 kph)
- 10SM
09:15
Overcast
66°F / 19°C 66°F / 19°C 100% 29.71 in
(1006 mb)
Variable 6.9 mph
(Variable 11 kph)
- 10SM
08:55
Overcast
66°F / 19°C 64°F / 18°C 94% 29.71 in
(1006 mb)
Variable 4.6 mph
(Variable 7 kph)
- 10SM
08:35
Overcast
66°F / 19°C 64°F / 18°C 94% 29.71 in
(1006 mb)
Variable 5.8 mph
(Variable 9 kph)
- 9SM
08:15
Overcast
66°F / 19°C 64°F / 18°C 94% 29.71 in
(1006 mb)
Variable 5.8 mph
(Variable 9 kph)
- 10SM
07:55
Overcast
66°F / 19°C 64°F / 18°C 94% 29.68 in
(1005 mb)
SW 6.9 mph
(SW 11 kph)
0.05 in
(1.27 mm)
10SM
07:35
Overcast
Fog And Mist
64°F / 18°C 64°F / 18°C 100% 29.68 in
(1005 mb)
SW 8.1 mph
(SW 13 kph)
- 5SM
07:15
Overcast
64°F / 18°C 64°F / 18°C 100% 29.68 in
(1005 mb)
SW 8.1 mph
(SW 13 kph)
- 10SM
06:55
Overcast
Fog And Mist
64°F / 18°C 63°F / 17°C 94% 29.68 in
(1005 mb)
SW 9.2 mph
(SW 15 kph)
0.02 in
(0.51 mm)
5SM
06:35
Overcast
64°F / 18°C 63°F / 17°C 94% 29.68 in
(1005 mb)
SW 9.2 mph
(SW 15 kph)
- 8SM
06:15
Overcast
64°F / 18°C 63°F / 17°C 94% 29.68 in
(1005 mb)
SSE 8.1 mph
(SSE 13 kph)
- 10SM
05:55
Mostly Cloudy
64°F / 18°C 63°F / 17°C 94% 29.68 in
(1005 mb)
SSE 8.1 mph
(SSE 13 kph)
- 10SM
05:35
Mostly Cloudy
64°F / 18°C 63°F / 17°C 94% 29.71 in
(1006 mb)
SSE 9.2 mph
(SSE 15 kph)
- 10SM
05:15
Mostly Cloudy
64°F / 18°C 63°F / 17°C 94% 29.68 in
(1005 mb)
Variable 4.6 mph
(Variable 7 kph)
- 9SM
04:55
Overcast
64°F / 18°C 63°F / 17°C 94% 29.71 in
(1006 mb)
SW 8.1 mph
(SW 13 kph)
- 10SM
04:35
Overcast
64°F / 18°C 63°F / 17°C 94% 29.68 in
(1005 mb)
SW 8.1 mph
(SW 13 kph)
- 10SM
04:15
Overcast
63°F / 17°C 63°F / 17°C 100% 29.68 in
(1005 mb)
SSE 5.8 mph
(SSE 9 kph)
- 10SM
03:55
Mostly Cloudy
64°F / 18°C 63°F / 17°C 94% 29.68 in
(1005 mb)
S 4.6 mph
(S 7 kph)
- 10SM
03:35
Overcast
63°F / 17°C 63°F / 17°C 100% 29.68 in
(1005 mb)
S 5.8 mph
(S 9 kph)
- 10SM
03:15
Mostly Cloudy
63°F / 17°C 63°F / 17°C 100% 29.68 in
(1005 mb)
Calm - 10SM
02:55
Mostly Cloudy
63°F / 17°C 63°F / 17°C 100% 29.68 in
(1005 mb)
SSE 8.1 mph
(SSE 13 kph)
- 10SM
02:35
Partly Cloudy
64°F / 18°C 63°F / 17°C 94% 29.68 in
(1005 mb)
SW 5.8 mph
(SW 9 kph)
- 10SM
02:15
Mostly Cloudy
64°F / 18°C 63°F / 17°C 94% 29.68 in
(1005 mb)
Variable 4.6 mph
(Variable 7 kph)
- 10SM
01:55
Partly Cloudy
64°F / 18°C 63°F / 17°C 94% 29.68 in
(1005 mb)
S 9.2 mph
(S 15 kph)
0.03 in
(0.76 mm)
10SM
01:35
Mostly Cloudy
64°F / 18°C 63°F / 17°C 94% 29.65 in
(1004 mb)
SE 16.1 mph
(SE 26 kph)
- 10SM
01:15
Overcast
Light Rain
64°F / 18°C 63°F / 17°C 94% 29.65 in
(1004 mb)
SE 16.1 mph
(SE 26 kph)
- 10SM
00:55
Overcast
Light Rain
64°F / 18°C 63°F / 17°C 94% 29.71 in
(1006 mb)
SE 15 mph
(SE 24 kph)
0.20 in
(5.08 mm)
5SM
00:35
Overcast
Rain
64°F / 18°C 63°F / 17°C 94% 29.77 in
(1008 mb)
SSE 13.8 mph
(SSE 22 kph)
- 6SM
00:15
Overcast
Rain
64°F / 18°C 63°F / 17°C 94% 29.8 in
(1009 mb)
S 12.7 mph
(S 20 kph)
- 5SM
Time Weather Temperature Dewpoint Humidity Pressure Winds Precip Visibility


Weather for websites

WeatherForYou.com, LLC is not responsible for any damages or problems caused by this service. Current weather conditions are obtained from the closest station including government and personal stations which may have varying degrees of accuracy. Weather forecasts are derived from the NOAA NDFD. Like all things, this site belongs to Jesus Christ... He just trusts me to maintain it. If you have any questions or comments email webmaster@weatherforyou.com

Copyright © 2014, WeatherForYou.com LLC. All rights reserved.